Home > Weather > Cleveland > Past weeks

Flag for U.S.A. Weather for the Past 2 Weeks in Cleveland, Ohio, U.S.A.

Now
45 °F

Scattered clouds.


Feels Like: 39 °F
Forecast: 32 / 50 °F
Wind: 14 mph from South

Location: Cleveland-Hopkins International Airport

Current Time: Feb 7, 2016 at 12:48:35 PM

Latest Report: Feb 7, 2016 at 11:51 AM


Visibility: 10 mi

Pressure: 30.03 "Hg

Humidity: 48%

Dew point: 26 °F

Location of ClevelandLocation

Historic Weather in Cleveland — Graph

°F

Cleveland Temperature Yesterday

Maximum temperature yesterday: 39 °F (at 2:51 PM)
Minimum temperature yesterday: 25 °F (at 6:51 AM)
Average temperature yesterday: 33 °F

High & Low Weather Summary for the Past Weeks

 TemperatureHumidityPressure
High61 °F (Feb 3, 11:51 AM)92% (Feb 2, 4:51 AM)30.44 "Hg (Feb 2, 4:51 AM)
Low16 °F (Jan 24, 4:51 AM)33% (Feb 2, 3:51 PM)29.57 "Hg (Feb 3, 5:51 AM)
Average36 °F66%30.02 "Hg
* Reported Jan 23 11:01 AM — Feb 7 11:51 AM, Cleveland, Weather by CustomWeather, © 2016

Note: Actual official high and low records may vary slightly from our data, if they occured in-between our weather recording intervals... More about our weather records

Advertising

Cleveland Weather History for the Previous 24 Hours

 ConditionsComfort  
Time TempWeatherWind HumidityBarometerVisibility
11:51 AM
Sun, Feb 7
45 °FScattered clouds.14 mph48%30.03 "Hg10 mi
10:51 AM42 °FScattered clouds.15 mph49%30.04 "Hg10 mi
9:51 AM40 °FPartly sunny.14 mph51%30.06 "Hg10 mi
8:51 AM37 °FScattered clouds.10 mph57%30.08 "Hg10 mi
7:51 AM34 °FScattered clouds.10 mph61%30.08 "Hg10 mi
6:51 AM33 °FClear.9 mph61%30.10 "Hg10 mi
5:51 AM28 °FClear.8 mph72%30.13 "Hg10 mi
4:51 AM29 °FClear.6 mph66%30.14 "Hg10 mi
3:51 AM31 °FClear.7 mph64%30.17 "Hg10 mi
2:51 AM32 °FClear.9 mph59%30.19 "Hg10 mi
1:51 AM32 °FClear.8 mph56%30.19 "Hg10 mi
12:51 AM31 °FClear.7 mph59%30.21 "Hg10 mi
11:51 PM
Sat, Feb 6
31 °FClear.6 mph57%30.22 "Hg10 mi
10:51 PM32 °FClear.7 mph56%30.23 "Hg10 mi
9:51 PM31 °FClear.5 mph59%30.24 "Hg10 mi
8:51 PM32 °FClear.6 mph59%30.25 "Hg10 mi
7:51 PM34 °FClear.6 mph56%30.25 "Hg10 mi
6:51 PM34 °FClear.6 mph56%30.26 "Hg10 mi
5:51 PM36 °FClear.9 mph54%30.26 "Hg10 mi
4:51 PM39 °FSunny.14 mph48%30.25 "Hg10 mi
3:51 PM39 °FSunny.9 mph50%30.25 "Hg10 mi
2:51 PM39 °FSunny.12 mph50%30.25 "Hg10 mi
1:51 PM38 °FSunny.12 mph51%30.27 "Hg10 mi
12:51 PM38 °FSunny.12 mph48%30.31 "Hg10 mi
Weather by CustomWeather, © 2016

See weather overviewHow to use our weather pages